| time (UTC) | temp F | wind direction | speed knots | gust knots | rain 1hr in | rain 24hr in | rain mn in | humidity % | barometer mb |
| 20260904143107 | 51 | 51 | 2.6 | 6.1 | 0.00 | 0.18 | 0.04 | 87 | 1012.1 |
| 20260904141602 | 51 | 37 | 2.6 | 4.3 | 0.00 | 0.18 | 0.04 | 87 | 1011.8 |
| 20260904140104 | 51 | 34 | 1.7 | 3.5 | 0.00 | 0.18 | 0.04 | 88 | 1012.0 |
| 20260904134603 | 51 | 66 | 1.7 | 4.3 | 0.00 | 0.20 | 0.04 | 87 | 1011.9 |
| 20260904133109 | 51 | 101 | 1.7 | 3.5 | 0.00 | 0.20 | 0.04 | 88 | 1011.7 |
| 20260904131606 | 51 | 65 | 2.6 | 7.8 | 0.00 | 0.20 | 0.04 | 89 | 1011.5 |
| 20260904130104 | 51 | 114 | 2.6 | 5.2 | 0.00 | 0.20 | 0.04 | 88 | 1011.6 |
| 20260904124610 | 51 | 187 | 1.7 | 3.5 | 0.00 | 0.20 | 0.04 | 87 | 1011.5 |
| 20260904123056 | 52 | 148 | 0.9 | 3.5 | 0.01 | 0.20 | 0.04 | 86 | 1011.2 |
| 20260904121600 | 51 | 96 | 0.9 | 3.5 | 0.02 | 0.20 | 0.04 | 87 | 1011.1 |
| 20260904120111 | 51 | 88 | 0.9 | 2.6 | 0.03 | 0.20 | 0.04 | 87 | 1011.0 |
| 20260904114610 | 51 | 92 | 0.9 | 3.5 | 0.03 | 0.20 | 0.04 | 87 | 1011.0 |
| 20260904113102 | 51 | 88 | 0.9 | 6.1 | 0.03 | 0.19 | 0.03 | 86 | 1010.8 |
| 20260904111603 | 52 | 134 | 0.9 | 3.5 | 0.02 | 0.18 | 0.02 | 85 | 1010.9 |
| 20260904110104 | 52 | 154 | 0.9 | 3.5 | 0.01 | 0.17 | 0.01 | 85 | 1010.9 |
| 20260904104556 | 52 | 198 | 0.9 | 5.2 | 0.01 | 0.17 | 0.01 | 84 | 1010.8 |
| 20260904103104 | 52 | 173 | 0.9 | 4.3 | 0.00 | 0.16 | 0.00 | 82 | 1010.8 |
| 20260904101605 | 53 | 155 | 0.9 | 2.6 | 0.00 | 0.16 | 0.00 | 81 | 1010.7 |
| 20260904100057 | 53 | 145 | 1.7 | 4.3 | 0.00 | 0.16 | 0.00 | 82 | 1010.7 |
| 20260904094604 | 53 | 147 | 1.7 | 3.5 | 0.00 | 0.16 | 0.00 | 82 | 1010.4 |
| 20260904093103 | 53 | 103 | 0.9 | 3.5 | 0.00 | 0.16 | 0.00 | 82 | 1010.3 |
| 20260904091601 | 53 | 142 | 0.9 | 2.6 | 0.00 | 0.16 | 0.00 | 83 | 1010.3 |
| 20260904090059 | 53 | 152 | 1.7 | 3.5 | 0.00 | 0.16 | 0.00 | 83 | 1010.2 |
| 20260904084557 | 53 | 160 | 0.9 | 1.7 | 0.00 | 0.18 | 0.00 | 84 | 1010.2 |
| 20260904083105 | 52 | 132 | 0.0 | 1.7 | 0.00 | 0.18 | 0.00 | 86 | 1010.3 |
| 20260904081602 | 53 | 177 | 1.7 | 3.5 | 0.00 | 0.18 | 0.00 | 84 | 1010.3 |
| 20260904080105 | 53 | 186 | 1.7 | 4.3 | 0.00 | 0.18 | 0.00 | 83 | 1010.2 |
| 20260904074557 | 54 | 180 | 1.7 | 5.2 | 0.00 | 0.19 | 0.00 | 83 | 1010.3 |
| 20260904073103 | 54 | 122 | 0.0 | 1.7 | 0.00 | 0.19 | 0.00 | 84 | 1010.3 |
| 20260904071601 | 53 | 128 | 0.9 | 3.5 | 0.00 | 0.19 | 0.00 | 85 | 1010.2 |
| 20260904070100 | 54 | 163 | 0.9 | 2.6 | 0.00 | 0.19 | 0.00 | 85 | 1010.2 |
| 20260904064630 | 54 | 84 | 0.0 | 2.6 | 0.00 | 0.20 | 0.19 | 85 | 1010.2 |
| 20260904063126 | 53 | 0 | 0.0 | 2.6 | 0.00 | 0.20 | 0.19 | 85 | 1010.2 |
| 20260904061601 | 53 | 106 | 0.9 | 1.7 | 0.00 | 0.20 | 0.19 | 85 | 1010.2 |
| 20260904060121 | 53 | 139 | 0.9 | 2.6 | 0.00 | 0.20 | 0.19 | 86 | 1010.2 |
| 20260904054604 | 54 | 140 | 1.7 | 4.3 | 0.00 | 0.20 | 0.19 | 86 | 1010.3 |
| 20260904053103 | 53 | 194 | 2.6 | 7.0 | 0.00 | 0.20 | 0.19 | 85 | 1010.4 |
| 20260904051600 | 53 | 156 | 3.5 | 6.1 | 0.00 | 0.20 | 0.19 | 86 | 1010.3 |
| 20260904050105 | 54 | 220 | 3.5 | 6.1 | 0.00 | 0.20 | 0.19 | 86 | 1010.4 |
| 20260904044601 | 54 | 186 | 3.5 | 7.0 | 0.00 | 0.20 | 0.19 | 85 | 1010.4 |
| 20260904043106 | 54 | 207 | 2.6 | 6.1 | 0.00 | 0.20 | 0.19 | 84 | 1010.5 |
| 20260904041601 | 54 | 194 | 2.6 | 4.3 | 0.00 | 0.20 | 0.19 | 85 | 1010.4 |
| 20260904040054 | 54 | 167 | 1.7 | 4.3 | 0.00 | 0.20 | 0.19 | 86 | 1010.5 |
| 20260904034600 | 54 | 163 | 1.7 | 4.3 | 0.00 | 0.21 | 0.19 | 87 | 1010.3 |
| 20260904033102 | 54 | 163 | 0.9 | 2.6 | 0.00 | 0.21 | 0.19 | 87 | 1010.2 |
| 20260904031556 | 54 | 169 | 0.9 | 3.5 | 0.00 | 0.21 | 0.19 | 87 | 1010.0 |
| 20260904030103 | 54 | 155 | 0.0 | 1.7 | 0.00 | 0.21 | 0.19 | 87 | 1009.8 |
| 20260904024608 | 54 | 125 | 0.9 | 2.6 | 0.00 | 0.21 | 0.19 | 88 | 1009.7 |
| 20260904023114 | 54 | 164 | 0.9 | 2.6 | 0.00 | 0.21 | 0.19 | 87 | 1009.8 |
| 20260904021557 | 54 | 138 | 0.9 | 2.6 | 0.00 | 0.21 | 0.19 | 87 | 1009.8 |
| 20260904020052 | 54 | 150 | 0.0 | 1.7 | 0.00 | 0.21 | 0.19 | 87 | 1009.8 |
| 20260904014602 | 54 | 155 | 0.0 | 3.5 | 0.00 | 0.21 | 0.19 | 87 | 1009.7 |
| 20260904013126 | 54 | 157 | 1.7 | 6.1 | 0.00 | 0.21 | 0.19 | 88 | 1009.9 |
| 20260904011601 | 54 | 136 | 3.5 | 7.0 | 0.00 | 0.21 | 0.19 | 88 | 1010.0 |
| 20260904010101 | 54 | 159 | 1.7 | 3.5 | 0.00 | 0.21 | 0.19 | 87 | 1009.9 |
| 20260904004603 | 55 | 166 | 1.7 | 5.2 | 0.00 | 0.21 | 0.19 | 85 | 1009.8 |
| 20260904003101 | 55 | 219 | 1.7 | 6.1 | 0.00 | 0.21 | 0.19 | 84 | 1009.7 |
| 20260904001609 | 55 | 205 | 3.5 | 7.8 | 0.03 | 0.21 | 0.19 | 87 | 1010.0 |
| 20260903234556 | 54 | 180 | 2.6 | 6.1 | 0.04 | 0.25 | 0.19 | 88 | 1009.9 |
| 20260903233106 | 53 | 178 | 2.6 | 7.8 | 0.06 | 0.25 | 0.19 | 88 | 1010.0 |
| 20260903231609 | 53 | 263 | 2.6 | 9.6 | 0.03 | 0.22 | 0.16 | 87 | 1010.2 |
| 20260903230057 | 53 | 265 | 2.6 | 10.4 | 0.02 | 0.21 | 0.15 | 86 | 1010.5 |
| 20260903224604 | 56 | 0 | 1.7 | 7.0 | 0.02 | 0.21 | 0.15 | 83 | 1010.4 |
| 20260903223112 | 58 | 198 | 1.7 | 5.2 | 0.00 | 0.19 | 0.13 | 76 | 1010.3 |
| 20260903221555 | 58 | 187 | 3.5 | 7.0 | 0.00 | 0.19 | 0.13 | 75 | 1010.1 |
| 20260903214600 | 57 | 182 | 4.3 | 11.3 | 0.00 | 0.20 | 0.13 | 77 | 1010.0 |
| 20260903213112 | 57 | 200 | 5.2 | 13.9 | 0.00 | 0.20 | 0.13 | 77 | 1010.2 |
| 20260903211605 | 57 | 192 | 7.0 | 14.8 | 0.00 | 0.20 | 0.13 | 77 | 1010.3 |
| 20260903204600 | 58 | 207 | 5.2 | 11.3 | 0.00 | 0.26 | 0.13 | 80 | 1010.1 |
| 20260903203059 | 58 | 181 | 6.1 | 14.8 | 0.00 | 0.26 | 0.13 | 80 | 1010.1 |
| 20260903201558 | 58 | 156 | 5.2 | 13.0 | 0.00 | 0.26 | 0.13 | 82 | 1010.1 |
| 20260903200104 | 57 | 209 | 6.1 | 15.6 | 0.00 | 0.26 | 0.13 | 82 | 1010.1 |
| 20260903194601 | 57 | 181 | 6.1 | 16.5 | 0.01 | 0.42 | 0.13 | 82 | 1010.1 |
| 20260903193101 | 58 | 197 | 7.0 | 13.9 | 0.01 | 0.42 | 0.13 | 83 | 1010.1 |
| 20260903191602 | 56 | 188 | 5.2 | 16.5 | 0.02 | 0.42 | 0.13 | 87 | 1010.4 |
| 20260903190106 | 55 | 210 | 6.1 | 14.8 | 0.02 | 0.42 | 0.13 | 88 | 1010.4 |
| 20260903184609 | 55 | 173 | 7.8 | 16.5 | 0.01 | 0.47 | 0.12 | 86 | 1010.4 |
| 20260903183106 | 55 | 202 | 5.2 | 13.9 | 0.01 | 0.47 | 0.12 | 87 | 1010.4 |
| 20260903181603 | 57 | 196 | 2.6 | 5.2 | 0.00 | 0.46 | 0.11 | 84 | 1010.3 |
| 20260903180109 | 58 | 196 | 5.2 | 12.2 | 0.00 | 0.46 | 0.11 | 83 | 1010.3 |
| 20260903174603 | 57 | 175 | 4.3 | 10.4 | 0.00 | 0.51 | 0.11 | 85 | 1010.2 |
| 20260903173108 | 57 | 198 | 3.5 | 9.6 | 0.00 | 0.51 | 0.11 | 84 | 1010.1 |
| 20260903171602 | 56 | 140 | 3.5 | 7.0 | 0.00 | 0.51 | 0.11 | 88 | 1010.2 |
| 20260903170058 | 55 | 192 | 4.3 | 8.7 | 0.00 | 0.51 | 0.11 | 88 | 1010.3 |
| 20260903164604 | 54 | 160 | 4.3 | 7.8 | 0.00 | 0.51 | 0.11 | 88 | 1010.5 |
| 20260903163135 | 54 | 178 | 4.3 | 7.8 | 0.01 | 0.51 | 0.11 | 90 | 1010.4 |
| 20260903161601 | 53 | 191 | 3.5 | 6.1 | 0.02 | 0.51 | 0.11 | 92 | 1010.4 |
| 20260903160100 | 52 | 178 | 1.7 | 4.3 | 0.02 | 0.51 | 0.11 | 92 | 1010.4 |
| 20260903154607 | 52 | 214 | 3.5 | 7.8 | 0.03 | 0.51 | 0.11 | 92 | 1010.4 |
| 20260903153103 | 52 | 172 | 3.5 | 9.6 | 0.03 | 0.50 | 0.10 | 92 | 1010.4 |
| 20260903151604 | 52 | 197 | 7.0 | 13.0 | 0.04 | 0.49 | 0.09 | 92 | 1010.3 |
| 20260903150105 | 52 | 176 | 5.2 | 13.0 | 0.04 | 0.49 | 0.09 | 92 | 1010.2 |
| 20260903144559 | 52 | 173 | 7.0 | 12.2 | 0.04 | 0.48 | 0.08 | 92 | 1010.2 |